2022-047AD (52421 NORAD) Tracking and Keplerian Element Data

This shows tracking and keplerian element data for the satellite.

Feedback or suggestion? Click here.




ElementValue
Catalog52421
Name2022-047AD
Epoch Orbit813
Epoch Day167.01635851
Epoch Year2022
RAAN251.9442
Inclination97.4485
Eccentricity0.0010627
Argument of Perigee182.6544
Mean Anonmoly177.4633
Mean Motion15.14143273
Decay Rate0.00027174
L11 52421U 22047AD 22167.01635851 .00027174 00000+0 14881-2 0 9990
L22 52421 97.4485 251.9442 0010627 182.6544 177.4633 15.14143273 8130

Live tracking and technical data element details for 2022-047AD (NORAD 52421). 2022-047AD can be tracked NOW for your location showing map with azimuth and elevation plus other details from your city location.

Track the satellite on the map from your city or location and see movement details for azimuth, elevation, latitude, longitude, range, height, and movement on the map or in text.







IsCatalogInMostPopularTable: catalog: 52421, numindb: 1
Update: records affected: 1



GetName: 52421 2022-047AD

Hit Count: updated at: Mon, 27 Jun 2022 04:46:04 GMT